User: anonymous
Location: Churchill
(58.7670°N, 94.1670°W)
Time: 13:56:02
(UTC-05:00)
Language:

Cosmos 2142 Rocket - Orbit

View from above orbital plane
View from above orbital plane
View from above satellite
View from above satellite

Ground track
Ground track

The orbit data is extracted from the following two-line orbital elements,

1 21231U 91029B   14235.41479917  .00000084  00000-0  71714-4 0  5461
2 21231 082.9548 150.6668 0034287 221.5280 275.2952 13.75628663172338
Epoch (UTC): 23 August 2014 09:57:18
Eccentricity: 0.0034287
inclination: 82.9548°
perigee height: 954 km
apogee height: 1004 km
right ascension of ascending node: 150.6668°
argument of perigee: 221.5280°
revolutions per day: 13.75628663
mean anomaly at epoch: 275.2952°
orbit number at epoch: 17233

The dashed part of the orbit path shows where the satellite is in the earth's shadow,  

DLR